Time,TemperatureF,DewpointF,PressureIn,WindDirection,WindDirectionDegrees,WindSpeedMPH,WindSpeedGustMPH,Humidity,HourlyPrecipIn,Conditions,Clouds,dailyrainin,SoftwareType,DateUTC
2016-12-09 00:00:00,20.5,12.0,30.52,West,268,0.0,0.0,69,0.00,,---,0.00,VWS V14.01,2016-12-09 06:00:00,
2016-12-09 00:05:00,20.5,12.0,30.51,WNW,285,0.0,1.0,69,0.00,,---,0.00,VWS V14.01,2016-12-09 06:05:00,
2016-12-09 00:10:00,20.5,12.0,30.51,NW,312,0.0,0.0,69,0.00,,---,0.00,VWS V14.01,2016-12-09 06:10:00,
2016-12-09 00:15:00,20.3,11.8,30.51,WSW,239,0.0,0.0,69,0.00,,---,0.00,VWS V14.01,2016-12-09 06:15:00,
2016-12-09 00:20:00,20.2,11.7,30.51,West,277,0.0,0.0,69,0.00,,---,0.00,VWS V14.01,2016-12-09 06:20:00,
2016-12-09 00:25:00,20.2,11.7,30.51,WNW,295,0.0,1.0,69,0.00,,---,0.00,VWS V14.01,2016-12-09 06:25:00,
2016-12-09 00:30:00,20.0,11.5,30.51,NW,318,0.0,1.0,69,0.00,,---,0.00,VWS V14.01,2016-12-09 06:30:00,
2016-12-09 00:35:00,20.0,11.5,30.51,WNW,297,0.0,0.0,69,0.00,,---,0.00,VWS V14.01,2016-12-09 06:35:00,
2016-12-09 00:40:00,20.0,11.8,30.51,NW,304,0.0,0.0,70,0.00,,---,0.00,VWS V14.01,2016-12-09 06:40:00,
2016-12-09 00:45:00,19.9,11.7,30.51,NW,304,0.0,0.0,70,0.00,,---,0.00,VWS V14.01,2016-12-09 06:45:00,
2016-12-09 00:50:00,19.7,11.5,30.51,West,260,0.0,0.0,70,0.00,,---,0.00,VWS V14.01,2016-12-09 06:50:00,
2016-12-09 00:55:00,19.7,11.5,30.51,WNW,282,0.0,0.0,70,0.00,,---,0.00,VWS V14.01,2016-12-09 06:55:00,
2016-12-09 01:00:00,19.5,11.6,30.51,WNW,283,0.0,0.0,71,0.00,,---,0.00,VWS V14.01,2016-12-09 07:00:00,
2016-12-09 01:05:00,19.5,11.6,30.51,WNW,290,0.0,0.0,71,0.00,,---,0.00,VWS V14.01,2016-12-09 07:05:00,
2016-12-09 01:10:00,19.5,11.3,30.51,WNW,290,0.0,0.0,70,0.00,,---,0.00,VWS V14.01,2016-12-09 07:10:00,
2016-12-09 01:15:00,19.4,11.6,30.51,WNW,288,0.0,0.0,71,0.00,,---,0.00,VWS V14.01,2016-12-09 07:15:00,
2016-12-09 01:20:00,19.4,11.6,30.51,NW,308,0.0,1.0,71,0.00,,---,0.00,VWS V14.01,2016-12-09 07:20:00,
2016-12-09 01:25:00,19.4,11.6,30.51,NW,321,0.0,1.0,71,0.00,,---,0.00,VWS V14.01,2016-12-09 07:25:00,
2016-12-09 01:30:00,19.4,11.6,30.51,WNW,283,0.0,0.0,71,0.00,,---,0.00,VWS V14.01,2016-12-09 07:30:00,
2016-12-09 01:35:00,19.2,11.4,30.52,WNW,283,0.0,0.0,71,0.00,,---,0.00,VWS V14.01,2016-12-09 07:35:00,
2016-12-09 01:40:00,19.2,11.4,30.52,WSW,254,0.0,0.0,71,0.00,,---,0.00,VWS V14.01,2016-12-09 07:40:00,
2016-12-09 01:45:00,19.1,11.3,30.52,WSW,256,0.0,0.0,71,0.00,,---,0.00,VWS V14.01,2016-12-09 07:45:00,
2016-12-09 01:50:00,19.1,11.6,30.52,NW,304,0.0,0.0,72,0.00,,---,0.00,VWS V14.01,2016-12-09 07:50:00,
2016-12-09 01:55:00,19.1,11.3,30.52,NW,304,0.0,0.0,71,0.00,,---,0.00,VWS V14.01,2016-12-09 07:55:00,
2016-12-09 02:00:00,19.1,11.6,30.52,NW,307,0.0,0.0,72,0.00,,---,0.00,VWS V14.01,2016-12-09 08:00:00,
2016-12-09 02:05:00,19.1,11.3,30.52,NW,307,0.0,0.0,71,0.00,,---,0.00,VWS V14.01,2016-12-09 08:05:00,
2016-12-09 02:10:00,18.9,11.1,30.52,NNW,344,0.0,0.0,71,0.00,,---,0.00,VWS V14.01,2016-12-09 08:10:00,
2016-12-09 02:15:00,18.9,11.4,30.52,NNW,344,0.0,0.0,72,0.00,,---,0.00,VWS V14.01,2016-12-09 08:15:00,
2016-12-09 02:20:00,18.6,10.8,30.53,NNW,344,0.0,0.0,71,0.00,,---,0.00,VWS V14.01,2016-12-09 08:20:00,
2016-12-09 02:25:00,18.4,10.9,30.53,NNW,344,0.0,0.0,72,0.00,,---,0.00,VWS V14.01,2016-12-09 08:25:00,
2016-12-09 02:30:00,18.3,10.8,30.53,NW,321,0.0,0.0,72,0.00,,---,0.00,VWS V14.01,2016-12-09 08:30:00,
2016-12-09 02:35:00,18.1,10.6,30.53,NW,304,0.0,0.0,72,0.00,,---,0.00,VWS V14.01,2016-12-09 08:35:00,
2016-12-09 02:40:00,18.0,10.8,30.53,NW,304,0.0,0.0,73,0.00,,---,0.00,VWS V14.01,2016-12-09 08:40:00,
2016-12-09 02:45:00,17.7,10.5,30.53,NW,304,0.0,0.0,73,0.00,,---,0.00,VWS V14.01,2016-12-09 08:45:00,
2016-12-09 02:50:00,17.5,10.3,30.54,NW,304,0.0,0.0,73,0.00,,---,0.00,VWS V14.01,2016-12-09 08:50:00,
2016-12-09 02:55:00,17.2,10.1,30.54,NW,305,0.0,0.0,73,0.00,,---,0.00,VWS V14.01,2016-12-09 08:55:00,
2016-12-09 03:00:00,17.0,9.9,30.54,NW,304,0.0,0.0,73,0.00,,---,0.00,VWS V14.01,2016-12-09 09:00:00,
2016-12-09 03:05:00,16.7,9.9,30.53,NW,304,0.0,0.0,74,0.00,,---,0.00,VWS V14.01,2016-12-09 09:05:00,
2016-12-09 03:10:00,16.5,10.0,30.53,NW,304,0.0,0.0,75,0.00,,---,0.00,VWS V14.01,2016-12-09 09:10:00,
2016-12-09 03:15:00,16.5,10.0,30.53,NW,304,0.0,0.0,75,0.00,,---,0.00,VWS V14.01,2016-12-09 09:15:00,
2016-12-09 03:20:00,16.5,10.0,30.54,NW,304,0.0,0.0,75,0.00,,---,0.00,VWS V14.01,2016-12-09 09:20:00,
2016-12-09 03:25:00,16.5,10.0,30.54,NW,304,0.0,0.0,75,0.00,,---,0.00,VWS V14.01,2016-12-09 09:25:00,
2016-12-09 03:30:00,16.5,10.0,30.54,NW,304,0.0,0.0,75,0.00,,---,0.00,VWS V14.01,2016-12-09 09:30:00,
2016-12-09 03:35:00,16.5,10.0,30.52,NW,304,0.0,0.0,75,0.00,,---,0.00,VWS V14.01,2016-12-09 09:35:00,
2016-12-09 03:40:00,16.5,10.0,30.52,NW,304,0.0,0.0,75,0.00,,---,0.00,VWS V14.01,2016-12-09 09:40:00,
2016-12-09 03:45:00,16.5,10.0,30.52,NW,304,0.0,0.0,75,0.00,,---,0.00,VWS V14.01,2016-12-09 09:45:00,
2016-12-09 03:50:00,16.5,10.0,30.52,NW,304,0.0,0.0,75,0.00,,---,0.00,VWS V14.01,2016-12-09 09:50:00,
2016-12-09 03:55:00,16.5,10.0,30.52,NW,304,0.0,0.0,75,0.00,,---,0.00,VWS V14.01,2016-12-09 09:55:00,
2016-12-09 04:00:00,16.5,10.0,30.52,NW,304,0.0,0.0,75,0.00,,---,0.00,VWS V14.01,2016-12-09 10:00:00,
2016-12-09 04:05:00,16.5,10.0,30.53,NW,304,0.0,0.0,75,0.00,,---,0.00,VWS V14.01,2016-12-09 10:05:00,
2016-12-09 04:10:00,16.5,10.0,30.53,NW,304,0.0,0.0,75,0.00,,---,0.00,VWS V14.01,2016-12-09 10:10:00,
2016-12-09 04:15:00,16.5,10.0,30.53,NW,304,0.0,0.0,75,0.00,,---,0.00,VWS V14.01,2016-12-09 10:15:00,
2016-12-09 04:20:00,16.5,10.0,30.54,NW,304,0.0,0.0,75,0.00,,---,0.00,VWS V14.01,2016-12-09 10:20:00,
2016-12-09 04:25:00,16.5,10.0,30.54,NW,304,0.0,0.0,75,0.00,,---,0.00,VWS V14.01,2016-12-09 10:25:00,
2016-12-09 04:30:00,16.5,10.0,30.54,NW,304,0.0,0.0,75,0.00,,---,0.00,VWS V14.01,2016-12-09 10:30:00,
2016-12-09 04:35:00,16.5,10.0,30.53,NW,304,0.0,0.0,75,0.00,,---,0.00,VWS V14.01,2016-12-09 10:35:00,
2016-12-09 04:40:00,16.5,10.0,30.53,NW,304,0.0,0.0,75,0.00,,---,0.00,VWS V14.01,2016-12-09 10:40:00,
2016-12-09 04:45:00,16.5,10.0,30.53,NW,304,0.0,0.0,75,0.00,,---,0.00,VWS V14.01,2016-12-09 10:45:00,
2016-12-09 04:50:00,16.5,10.0,30.52,NW,304,0.0,0.0,75,0.00,,---,0.00,VWS V14.01,2016-12-09 10:50:00,
2016-12-09 04:55:00,16.5,10.0,30.52,NW,304,0.0,0.0,75,0.00,,---,0.00,VWS V14.01,2016-12-09 10:55:00,
2016-12-09 05:00:00,16.5,10.0,30.52,NW,304,0.0,0.0,75,0.00,,---,0.00,VWS V14.01,2016-12-09 11:00:00,
2016-12-09 05:05:00,16.5,10.0,30.53,NW,304,0.0,0.0,75,0.00,,---,0.00,VWS V14.01,2016-12-09 11:05:00,
2016-12-09 05:10:00,16.5,10.0,30.53,NW,304,0.0,0.0,75,0.00,,---,0.00,VWS V14.01,2016-12-09 11:10:00,
2016-12-09 05:15:00,16.5,10.0,30.53,NW,304,0.0,0.0,75,0.00,,---,0.00,VWS V14.01,2016-12-09 11:15:00,
2016-12-09 05:20:00,16.5,10.0,30.54,NW,304,0.0,0.0,75,0.00,,---,0.00,VWS V14.01,2016-12-09 11:20:00,
2016-12-09 05:25:00,16.5,10.0,30.54,NW,304,0.0,0.0,75,0.00,,---,0.00,VWS V14.01,2016-12-09 11:25:00,
2016-12-09 05:30:00,16.5,10.0,30.54,NW,304,0.0,0.0,75,0.00,,---,0.00,VWS V14.01,2016-12-09 11:30:00,
2016-12-09 05:35:00,16.5,10.0,30.54,NW,304,0.0,0.0,75,0.00,,---,0.00,VWS V14.01,2016-12-09 11:35:00,
2016-12-09 05:40:00,16.5,10.0,30.54,NW,304,0.0,0.0,75,0.00,,---,0.00,VWS V14.01,2016-12-09 11:40:00,